Hourly Data Report for October 09, 2020

SAINT JOHN A
NEW BRUNSWICK
Current Station Operator: NAVCAN

45°18'58.000" N
65°53'24.000" W
108.80 m
8104901
71609
YSJ

Download Data

Hourly Data (October 2020)
Hourly Data Report for October 9, 2020
TIME
LST
Temp Definition
°C
Dew Point Definition
°C
Rel Hum Definition
%
Precip. Amount Definition
mm

Wind Dir Definition
10's deg

Wind Spd Definition
km/h
Visibility Definition
km
Stn Press Definition
kPa
Hmdx Definition


Wind Chill Definition


Weather Definition


00:00 4.5 -4.3 53 LegendMM 30 27 24.1 99.48     LegendNANA
01:00 4.2 -4.3 54 LegendMM 30 28 24.1 99.54     LegendNANA
02:00 3.7 -4.3 56 LegendMM 29 30 24.1 99.62     Clear
03:00 3.4 -4.5 56 LegendMM 29 27 24.1 99.68     LegendNANA
04:00 3.0 -4.1 60 LegendMM 28 21 24.1 99.73     LegendNANA
05:00 2.8 -3.3 65 LegendMM 28 20 24.1 99.81     Clear
06:00 2.3 -3.1 68 LegendMM 28 16 24.1 99.87     LegendNANA
07:00 2.0 -2.8 70 LegendMM 26 14 24.1 99.93     LegendNANA
08:00 3.3 -2.7 65 LegendMM 28 17 24.1 100.00     Mainly Clear
09:00 4.8 -3.0 57 LegendMM 28 27 24.1 100.03     LegendNANA
10:00 6.2 -3.2 51 LegendMM 31 33 24.1 100.02     LegendNANA
11:00 7.8 -4.6 41 LegendMM 31 27 24.1 99.99     Mainly Clear
12:00 8.7 -4.2 40 LegendMM 27 21 24.1 99.98     LegendNANA
13:00 9.4 -5.9 33 LegendMM 28 28 24.1 99.96     LegendNANA
14:00 10.2 -6.3 31 LegendMM 30 31 24.1 99.94     Mainly Clear
15:00 10.7 -5.4 32 LegendMM 29 31 24.1 99.94     LegendNANA
16:00 10.7 -5.2 32 LegendMM 29 30 24.1 99.97     LegendNANA
17:00 10.3 -4.5 35 LegendMM 28 22 24.1 100.01     Mainly Clear
18:00 8.8 -2.7 44 LegendMM 26 10 24.1 100.08     LegendNANA
19:00 7.8 -1.7 51 LegendMM 25 6 24.1 100.18     LegendNANA
20:00 6.6 -1.0 58 LegendMM 20 5 24.1 100.24     Clear
21:00 5.8 -1.1 61 LegendMM 23 7 24.1 100.27     LegendNANA
22:00 5.1 -0.7 66 LegendMM 24 9 24.1 100.31     LegendNANA
23:00 1.8 -0.6 84 LegendMM 20 5 24.1 100.30     Clear

Notes on Data Quality.

Legend

  • E = Estimated
  • M = Missing
  • NA = Not Available*
  • [empty] = Indicates an unobserved value
Date modified: